[[{"header":{"parameterUnit":"m.s-1","parameterCategory":1,"la1":30.2991,"la2":30.254,"lo1":-89.0895,"lo2":-89.0444,"dy":0.0017,"dx":0.0017,"nx":28,"ny":28,"refTime":"2024-11-23T09:00:00:Z","depth":0,"parameterNumber":2,"parameterNumberName":"U-component_of_WINDS"},"data":[0,0,0,0,0,0,0,0,0,0,0,0,0,0,0,0,0,0,0,0,0,0,0,0,0,0,0,0,0,0,0,0,0,0,0,0,0,0,0,0,0,0,0,0,0,0,0,0,0,0,0,0,0,0,0,0,0,0,0.8084,0.8084,0,0.8093,0.8093,0.8093,0.8087,0.8086,0.8086,0.8086,0.8094,0.8094,0.8095,0,0,0,0,0,0,0,0,0,0,0,0,0,0.806,0.806,0.8084,0.8084,0.8084,0.8093,0.8093,0.8093,0.8087,0.8086,0.8086,0.8086,0.8094,0.8094,0.8095,0,0,0,0,0,0,0,0,0,0,0,0,0,0.807,0.8061,0.8084,0.8082,0.8082,0.8093,0.8093,0.8093,0.8087,0.8086,0.8086,0.8086,0.8093,0.8094,0.8095,0.8108,0,0,0.8097,0.8097,0,0,0,0,0,0,0,0,0.8069,0.8071,0.8082,0.8082,0.8082,0.8088,0.8087,0.8098,0.8087,0.8085,0.8086,0.8085,0.8092,0.8093,0.8096,0.8108,0.8108,0.8097,0.8097,0.8098,0.8098,0,0,0,0,0,0,0,0.8069,0.807,0.8088,0.8082,0.8082,0.808,0.8081,0.8089,0.8091,0.8085,0.8085,0.8086,0.8092,0.8095,0.8096,0.8108,0.8097,0.8098,0.8098,0.8098,0.813,0.8131,0,0,0,0,0,0,0.8068,0.807,0.8087,0.8088,0.8075,0.8081,0.8082,0.8087,0.8091,0.8091,0.8086,0.8086,0.8094,0.8095,0.8096,0.811,0.8098,0.8098,0.8099,0.813,0.813,0.8131,0,0,0,0,0,0,0.8068,0.807,0.8087,0.8079,0.8081,0.8082,0.8087,0.8087,0.809,0.8092,0.8092,0.8089,0.8094,0.8095,0.8104,0.811,0.8099,0.8099,0.8129,0.813,0.8131,0.8139,0,0,0,0,0,0,0.8067,0.807,0.8075,0.8079,0.8081,0.8096,0.8088,0.8088,0.8091,0.809,0.8094,0.8094,0.8093,0.8103,0.8105,0.8111,0.81,0.8129,0.813,0.813,0.8138,0.814,0.8142,0,0,0,0,0,0.8066,0.8077,0.8075,0.8078,0.8088,0.8096,0.8097,0.8097,0.8092,0.8097,0.8098,0.8094,0.811,0.8105,0.8106,0.8113,0.8128,0.8129,0.813,0.8138,0.814,0.8141,0,0,0,0,0,0,0.8074,0.8078,0.8076,0.8088,0.8092,0.8095,0.8101,0.8099,0.8104,0.8103,0.8101,0.8102,0.8112,0.8113,0.8108,0.8124,0.8118,0.812,0.8123,0.8125,0.8127,0.8126,0.8101,0,0,0,0,0,0.8077,0.8084,0.8087,0.8098,0.81,0.81,0.8104,0.8103,0.8106,0.8108,0.8109,0.8113,0.8118,0.8122,0.8127,0.8139,0.8139,0.8144,0.8145,0.8147,0.8148,0.8153,0.8155,0.8134,0.8134,0.8134,0,0,0.8084,0.8087,0.8091,0.8099,0.8102,0.8108,0.8102,0.8109,0.8114,0.8109,0.8118,0.8119,0.8123,0.8133,0.8138,0.8134,0.8154,0.8148,0.8149,0.8149,0.8154,0.8156,0.8158,0.8135,0.8135,0.8134,0,0,0.8099,0.8102,0.8111,0.8114,0.8118,0.8118,0.812,0.8124,0.8124,0.8133,0.813,0.8135,0.8145,0.8147,0.8149,0.8165,0.8161,0.8166,0.8174,0.8179,0.8181,0.8182,0.8187,0.8188,0.8168,0.8168,0.8168,0,0.8106,0.8116,0.8116,0.8123,0.8126,0.8123,0.8131,0.8133,0.8139,0.8141,0.8138,0.8149,0.8151,0.8162,0.8165,0.8168,0.8169,0.8166,0.8181,0.8182,0.8183,0.8188,0.8189,0.8168,0.8168,0.8168,0.8168,0,0.8125,0.8132,0.8138,0.8144,0.8148,0.8156,0.8155,0.8159,0.8158,0.8158,0.8167,0.8169,0.8174,0.8177,0.8176,0.8187,0.8185,0.8181,0.8175,0.8186,0.819,0.8191,0.8169,0.8169,0.8168,0.8168,0,0,0.8145,0.8149,0.8152,0.8154,0.8158,0.8163,0.817,0.8175,0.8178,0.8182,0.8188,0.8196,0.8192,0.8195,0.8194,0.8198,0.8209,0.8194,0.8194,0.8196,0.822,0.8222,0.8224,0.8207,0.8207,0.8208,0.822,0,0.8159,0.8172,0.8171,0.8183,0.8189,0.8185,0.8191,0.8194,0.8195,0.8199,0.82,0.8205,0.82,0.8202,0.8206,0.8207,0.8214,0.8206,0.8211,0.8211,0.8209,0.8226,0.8229,0.824,0.8221,0.8221,0.8222,0,0.8178,0.8182,0.8194,0.8197,0.8199,0.8205,0.8209,0.8214,0.8216,0.8216,0.8219,0.8217,0.8224,0.8218,0.8226,0.8221,0.8223,0.8223,0.8224,0.8224,0.8217,0.8226,0.8244,0.8245,0.8224,0.8224,0.8224,0,0.819,0.8199,0.8207,0.8209,0.8212,0.8216,0.8217,0.822,0.8223,0.8226,0.8228,0.8232,0.8234,0.8238,0.8236,0.8232,0.8245,0.8239,0.8244,0.8244,0.8246,0.8246,0.8264,0.8249,0.8249,0.8249,0.8249,0,0.8205,0.8213,0.8212,0.8217,0.8225,0.8224,0.8232,0.8233,0.8235,0.8239,0.8237,0.8241,0.824,0.8244,0.8243,0.8249,0.8251,0.825,0.825,0.825,0.825,0.8251,0.8249,0.825,0.825,0.825,0.8249,0,0.8219,0.822,0.8228,0.8231,0.8231,0.8237,0.8238,0.8243,0.8243,0.8249,0.825,0.825,0.8255,0.8254,0.8259,0.8259,0.8267,0.8266,0.8266,0.8265,0.827,0.8269,0.8288,0.8291,0.8275,0.8275,0.8276,0,0.8229,0.8235,0.8237,0.824,0.8242,0.8247,0.825,0.8249,0.8251,0.8255,0.8258,0.8263,0.8266,0.8274,0.8274,0.8278,0.8276,0.8283,0.8277,0.8276,0.8275,0.8274,0.8274,0.8283,0.8284,0.8284,0.8284,0,0.8245,0.8245,0.8249,0.8253,0.8257,0.826,0.8263,0.8265,0.8264,0.8268,0.8272,0.8275,0.828,0.8284,0.8288,0.8289,0.8286,0.8286,0.8287,0.8287,0.8286,0.8286,0.8268,0.8285,0.8285,0.8285,0.8285,0.8285,0.8257,0.8261,0.8264,0.8268,0.827,0.8273,0.8277,0.8277,0.8281,0.8285,0.8284,0.8289,0.8291,0.8296,0.8297,0.83,0.8298,0.83,0.83,0.8301,0.8301,0.8286,0.8301,0.8301,0.8301,0.8301,0.8301,0,0.8272,0.8273,0.8278,0.8282,0.8285,0.8283,0.8285,0.8288,0.8293,0.8295,0.8298,0.8303,0.8307,0.8307,0.8311,0.8314,0.8312,0.8314,0.8314,0.8314,0.8303,0.8301,0.8315,0.8315,0.8315,0.8315,0.8315,0.8315,0.828,0.8287,0.8287,0.8295,0.8296,0.8301,0.8303,0.8305,0.8306,0.8312,0.8315,0.8315,0.8317,0.832,0.8323,0.8323,0.8324,0.8327,0.8326,0.8316,0.8315,0.8313,0.8311,0.8327,0.8327,0.8336,0.8336,0.8336]},{"header":{"parameterUnit":"m.s-1","parameterCategory":1,"la1":30.2991,"la2":30.254,"lo1":-89.0895,"lo2":-89.0444,"dy":0.0017,"dx":0.0017,"nx":28,"ny":28,"refTime":"2024-11-23T09:00:00:Z","depth":0,"parameterNumber":3,"parameterNumberName":"V-component_of_WINDS"},"data":[0,0,0,0,0,0,0,0,0,0,0,0,0,0,0,0,0,0,0,0,0,0,0,0,0,0,0,0,0,0,0,0,0,0,0,0,0,0,0,0,0,0,0,0,0,0,0,0,0,0,0,0,0,0,0,0,0,0,1.8131,1.8131,0,1.8111,1.811,1.811,1.8038,1.8036,1.8035,1.8033,1.8012,1.8013,1.8014,0,0,0,0,0,0,0,0,0,0,0,0,0,1.8106,1.8107,1.8131,1.8131,1.8131,1.8111,1.811,1.811,1.8038,1.8036,1.8034,1.8032,1.8012,1.8013,1.8014,0,0,0,0,0,0,0,0,0,0,0,0,0,1.8105,1.8107,1.8131,1.8092,1.8089,1.8111,1.811,1.811,1.8039,1.8036,1.8034,1.8031,1.8011,1.8013,1.8014,1.8072,0,0,1.8018,1.8019,0,0,0,0,0,0,0,0,1.8105,1.8106,1.8098,1.8095,1.8091,1.8074,1.8094,1.8097,1.8039,1.8058,1.8033,1.803,1.8035,1.8034,1.8035,1.8071,1.807,1.8018,1.8019,1.802,1.802,0,0,0,0,0,0,0,1.8105,1.8106,1.8123,1.8098,1.8094,1.8075,1.8072,1.8094,1.806,1.8056,1.8051,1.8049,1.8032,1.8034,1.8034,1.8069,1.8018,1.802,1.8021,1.8021,1.8148,1.815,0,0,0,0,0,0,1.8111,1.8107,1.8124,1.8122,1.8092,1.8078,1.8074,1.8082,1.806,1.8054,1.8051,1.8046,1.8033,1.8033,1.8033,1.8097,1.802,1.8021,1.8022,1.8145,1.8148,1.8151,0,0,0,0,0,0,1.8111,1.8113,1.8124,1.8113,1.8113,1.8081,1.809,1.8083,1.8085,1.8056,1.805,1.806,1.8031,1.8031,1.8062,1.8096,1.8022,1.8023,1.8142,1.8146,1.815,1.8228,0,0,0,0,0,0,1.811,1.8113,1.8136,1.8114,1.8114,1.8154,1.8092,1.8084,1.8088,1.808,1.8062,1.8057,1.8029,1.806,1.8063,1.8096,1.8024,1.8139,1.8144,1.8149,1.8222,1.8234,1.8244,0,0,0,0,0,1.811,1.8159,1.8137,1.814,1.8141,1.8157,1.8156,1.8123,1.8091,1.8112,1.8093,1.8058,1.8092,1.8064,1.8067,1.8101,1.8137,1.8143,1.8148,1.8217,1.8231,1.8243,0,0,0,0,0,0,1.8186,1.8156,1.8131,1.8175,1.8169,1.8144,1.8171,1.814,1.8143,1.8136,1.8095,1.8091,1.8127,1.8117,1.8087,1.8154,1.8108,1.8115,1.8159,1.8173,1.8183,1.8185,1.8025,0,0,0,0,0,1.8208,1.8224,1.8196,1.8237,1.8235,1.8204,1.8209,1.8184,1.8176,1.8173,1.8156,1.8149,1.8158,1.8165,1.8172,1.822,1.8214,1.8245,1.8255,1.8264,1.827,1.8293,1.8306,1.817,1.817,1.8169,0,0,1.8254,1.8239,1.8252,1.8252,1.8245,1.826,1.8202,1.8222,1.8233,1.8176,1.8203,1.8191,1.818,1.8219,1.8236,1.8212,1.8306,1.8272,1.8279,1.828,1.83,1.8313,1.8324,1.8173,1.8173,1.8172,0,0,1.8345,1.8336,1.8369,1.8362,1.835,1.8328,1.8336,1.8315,1.8305,1.8331,1.8288,1.83,1.8317,1.831,1.8309,1.8395,1.8362,1.8399,1.8455,1.8478,1.8488,1.8498,1.8527,1.8538,1.8405,1.8405,1.8405,0,1.8404,1.8426,1.8389,1.8411,1.8412,1.836,1.8392,1.8387,1.8378,1.838,1.8353,1.8371,1.836,1.8396,1.8417,1.8418,1.8425,1.8401,1.849,1.8499,1.8507,1.8534,1.8545,1.8409,1.8409,1.8408,1.8408,0,1.8497,1.8514,1.8541,1.8533,1.8537,1.8564,1.853,1.8538,1.8512,1.8493,1.8519,1.8504,1.8506,1.8513,1.8488,1.8544,1.853,1.8497,1.845,1.8525,1.8549,1.856,1.8416,1.8414,1.8413,1.8412,0,0,1.8638,1.8607,1.8618,1.8613,1.8595,1.8606,1.863,1.8631,1.8638,1.8633,1.8651,1.8665,1.8634,1.8633,1.8606,1.8626,1.8693,1.8591,1.859,1.8609,1.8751,1.8775,1.8788,1.867,1.8672,1.8674,1.8752,0,1.8723,1.8762,1.8728,1.8773,1.8786,1.8736,1.8756,1.8747,1.8729,1.8737,1.8716,1.8726,1.8686,1.8684,1.8701,1.8681,1.872,1.8675,1.8685,1.8686,1.8689,1.8801,1.8827,1.8902,1.8761,1.8763,1.8764,0,1.8829,1.8827,1.8873,1.885,1.8854,1.8873,1.887,1.8879,1.8866,1.8852,1.8849,1.8816,1.8836,1.8791,1.8817,1.8786,1.8788,1.8779,1.8781,1.878,1.8729,1.8803,1.8925,1.8936,1.8779,1.8778,1.8777,0,1.8925,1.8934,1.8962,1.896,1.8934,1.8948,1.8938,1.8923,1.8925,1.8922,1.8922,1.8922,1.8922,1.8922,1.8889,1.8859,1.8919,1.8871,1.8906,1.8907,1.8921,1.8921,1.9045,1.8924,1.8924,1.8924,1.8924,0,1.9023,1.9053,1.9005,1.9022,1.9053,1.9013,1.9045,1.9029,1.9016,1.9028,1.8985,1.8998,1.8954,1.8962,1.8937,1.8961,1.8961,1.8949,1.8942,1.8953,1.8954,1.8953,1.8947,1.8927,1.8926,1.8925,1.8925,0,1.9136,1.9105,1.9132,1.9104,1.9098,1.9122,1.9098,1.9112,1.909,1.9106,1.9108,1.9074,1.908,1.9048,1.9049,1.9031,1.9068,1.9052,1.9072,1.9067,1.9104,1.91,1.9231,1.9245,1.9117,1.9118,1.9119,0,1.92,1.9222,1.9196,1.9201,1.9193,1.9202,1.9203,1.9164,1.9167,1.9153,1.9168,1.9171,1.9171,1.9183,1.9158,1.9158,1.9141,1.9187,1.9141,1.915,1.914,1.9139,1.914,1.9196,1.9198,1.9199,1.92,0,1.9318,1.9301,1.9304,1.9302,1.9304,1.9301,1.9294,1.9301,1.9258,1.9263,1.9269,1.9269,1.9268,1.9271,1.9265,1.9254,1.922,1.9215,1.9223,1.9234,1.9244,1.9237,1.9097,1.9212,1.9211,1.921,1.9209,1.9209,1.9407,1.9423,1.9407,1.9411,1.9402,1.9396,1.9407,1.9386,1.939,1.9386,1.9363,1.9373,1.9357,1.9346,1.9337,1.9343,1.9321,1.9334,1.9336,1.934,1.9346,1.9243,1.9342,1.9342,1.9342,1.9341,1.9341,0,1.9521,1.9508,1.9512,1.9503,1.9507,1.9474,1.9464,1.9469,1.9477,1.9466,1.9466,1.9471,1.9473,1.9447,1.9445,1.9455,1.9439,1.9456,1.9454,1.9452,1.9366,1.9359,1.9468,1.9468,1.9468,1.9468,1.9468,1.9468,1.9581,1.9605,1.9586,1.9604,1.959,1.9598,1.9595,1.9589,1.9579,1.9587,1.9588,1.9571,1.9553,1.9549,1.9548,1.9541,1.9541,1.9563,1.955,1.947,1.9458,1.9446,1.9439,1.9564,1.9564,1.9635,1.9636,1.9636]}]]